FLOCK 2E'-3 (41480 NORAD) Tracking and Keplerian Element Data

This shows tracking and keplerian element data for the satellite.

Feedback or suggestion? Click here.




ElementValue
Catalog41480
NameFLOCK 2E'-3
Epoch Orbit11011
Epoch Day108.41998481
Epoch Year2018
RAAN234.192
Inclination51.5903
Eccentricity0.0009861
Argument of Perigee304.4876
Mean Anonmoly56.0997
Mean Motion16.45076624
Decay Rate0.29365034
L11 41480U 98067JA 18108.41998481 .29365034 12631-4 75769-3 0 9995
L22 41480 51.5903 234.1920 0009861 304.4876 56.0997 16.45076624110110

Live tracking and technical data element details for FLOCK 2E'-3 (NORAD 41480). FLOCK 2E'-3 can be tracked NOW for your location showing map with azimuth and elevation plus other details from your city location.

Track the satellite on the map from your city or location and see movement details for azimuth, elevation, latitude, longitude, range, height, and movement on the map or in text.







IsCatalogInMostPopularTable: catalog: 41480, numindb: 124
Update: records affected: 1



GetName: 41480 FLOCK 2E'-3

Hit Count: updated at: Mon, 12 Nov 2018 17:31:59 GMT